Location: ????????
(56.1167°N, 38.6333°E)
Time: 22:08:34
(UTC+00:00)

BREEZE M DEB (TANK) - Pass Details

Date: 18 November 2025
Orbit: 329 x 15648 km, 49.4° (Epoch: 05 December)

Event Time Altitude Azimuth Distance (km) Brightness Sun altitude
Rises 14:57:52 0° 263° (W) 10,987 10.8 -14.2°
Reaches altitude 10° 15:08:56 10° 262° (W) 7,377 9.4 -15.7°
Maximum altitude 15:24:47 53° 193° (SSW) 1,482 4.5 -17.9°
Enters shadow 15:27:51 22° 124° (SE) 1,698 4.4 -18.3°
